[ hide orbit diagram ]
For accurate long-term ephemerides, please instead use our Horizons system.This orbit viewer was implemented using two-body methods, and hence should not be used for determining accurate long-term trajectories (over several years or decades) or planetary encounter circumstances.
Orbital Elements at Epoch 2459000.5 (2020-May-31.0) TDB
Reference: JPL 18 (heliocentric ecliptic J2000)
Element | Value | Uncertainty (1-sigma) | Units |
e | .1349164780457363 | 4.6675e-08 | |
a | 2.423482782475582 | 1.7489e-08 | au |
q | 2.096515020859496 | 1.1431e-07 | au |
i | 6.876524943844362 | 4.6465e-06 | deg |
node | 93.49463422759985 | 3.9923e-05 | deg |
peri | 243.055861864141 | 4.4204e-05 | deg |
M | 303.9275572211367 | 2.0864e-05 | deg |
tp | 2459215.137356308890 (2020-Dec-31.63735631) | 8.0464e-05 | TDB |
period | 1378.028929039762 3.77 | 1.4917e-05 4.084e-08 | d yr |
n | .2612427013784502 | 2.828e-09 | deg/d |
Q | 2.750450544091669 | 1.9849e-08 | au |
|
| | Orbit Determination Parameters
Additional Information
|
[ show covariance matrix ]
Physical Parameter Table
Parameter |
Symbol |
Value |
Units |
Sigma |
Reference |
Notes |
absolute magnitude |
H |
16.1 |
|
n/a |
MPO433199 |
|
|
183335 (2002 VQ80) Discovered 2002-Nov-07 by LINEAR at Socorro |
Reference: 20080420/Numbers.arc | Last Updated: 2008-04-23 |
|
|